Clarksburg, WV

12:58 AM EDT on September 25, 2017 (GMT -0400)
Benedum

Weather History for KCKB - January, 2014

Change the Weather History Date:

Sunday, January 26, 2014

  Actual Average Record
Temperature  
Mean Temperature 22 °F -  
Max Temperature 39 °F 40 °F 77 °F (1950)
Min Temperature 8 °F 21 °F -11 °F (1936)
Degree Days  
Heating Degree Days 42    
Moisture  
Dew Point 9 °F    
Average Humidity 65    
Maximum Humidity 84    
Minimum Humidity 45    
Precipitation  
Precipitation 0.03 in - - ()
Sea Level Pressure  
Sea Level Pressure 29.78 in    
Wind  
Wind Speed 9 mph (SSW)    
Max Wind Speed 20 mph    
Max Gust Speed 30 mph    
Visibility 8 miles    
Events Fog , Snow    
Averages and records for this station are not official NWS values.
T = Trace of Precipitation, MM = Missing Value Source: NWS Daily Summary

Daily Weather History Graph

Daily Weather History Graph

Search for Another Location

Airport or City:

Trip Planner

Search our weather history database for the weather conditions in past years. The results will help you decide how hot, cold, wet, or windy it might be!

Date:

Astronomy

Jan. 26, 2014 Rise Set
Actual Time 7:32 AM EST 5:34 PM EST
Civil Twilight 7:04 AM EST 6:03 PM EST
Nautical Twilight 6:31 AM EST 6:35 PM EST
Astronomical Twilight 6:00 AM EST 7:07 PM EST
Moon 3:08 AM EST (1/26) 1:22 PM EST (1/26)
Length of Visible Light 10h 59m
Length of Day
10h 01m
Waning Crescent, 24% of the Moon is Illuminated
Jan 26
Waning Crescent
Jan 30
New
Feb 6
First Quarter
Feb 14
Full
Feb 22
Last Quarter

Hourly Weather History & Observations

Time (EST) Temp. Windchill Dew Point Humidity Pressure Visibility Wind Dir Wind Speed Gust Speed Precip Events Conditions
12:53 AM 15.1 °F -2.0 °F 1.9 °F 56% 29.84 in 10.0 mi West 19.6 mph 29.9 mph N/A   Mostly Cloudy
1:53 AM 14.0 °F 0.5 °F 1.0 °F 56% 29.85 in 10.0 mi West 11.5 mph 21.9 mph N/A   Overcast
2:49 AM 12.2 °F 0.7 °F 3.2 °F 67% 29.85 in 10.0 mi West 8.1 mph - N/A   Overcast
2:53 AM 12.9 °F 0.7 °F 3.0 °F 65% 29.88 in 10.0 mi West 9.2 mph - N/A   Overcast
3:44 AM 12.0 °F -1.3 °F 1.9 °F 64% 29.88 in 10.0 mi WSW 10.4 mph - 0.00 in   Mostly Cloudy
3:53 AM 12.0 °F 0.5 °F 1.9 °F 64% 29.91 in 10.0 mi WSW 8.1 mph - 0.00 in   Mostly Cloudy
4:09 AM 12.0 °F 0.5 °F 1.9 °F 64% 29.87 in 10.0 mi SW 8.1 mph - 0.00 in   Mostly Cloudy
4:17 AM 10.9 °F 1.4 °F 1.9 °F 67% 29.87 in 10.0 mi SW 5.8 mph - 0.00 in   Mostly Cloudy
4:28 AM 10.9 °F 0.2 °F 1.9 °F 67% 29.87 in 10.0 mi SW 6.9 mph - 0.00 in   Mostly Cloudy
4:53 AM 10.9 °F 0.2 °F 3.0 °F 70% 29.91 in 10.0 mi SW 6.9 mph - 0.00 in   Overcast
5:04 AM 10.9 °F 0.2 °F 3.9 °F 73% 29.86 in 8.0 mi SW 6.9 mph - N/A   Overcast
5:28 AM 9.0 °F -3.2 °F 3.0 °F 77% 29.86 in 9.0 mi SW 8.1 mph - N/A   Partly Cloudy
5:53 AM 10.0 °F -3.7 °F 1.0 °F 67% 29.89 in 10.0 mi SW 10.4 mph - N/A   Clear
6:53 AM 8.1 °F -4.3 °F -0.0 °F 70% 29.89 in 10.0 mi SSW 8.1 mph - N/A   Clear
7:53 AM 8.1 °F -2.0 °F -0.9 °F 67% 29.87 in 10.0 mi South 5.8 mph - N/A   Clear
8:53 AM 10.9 °F 0.2 °F 1.0 °F 64% 29.83 in 10.0 mi South 6.9 mph - N/A   Clear
9:53 AM 15.1 °F 5.2 °F -0.9 °F 49% 29.81 in 10.0 mi SSW 6.9 mph - N/A   Mostly Cloudy
10:53 AM 17.1 °F 7.6 °F -0.0 °F 47% 29.81 in 10.0 mi SSW 6.9 mph - N/A   Overcast
11:05 AM 17.1 °F 5.0 °F 1.9 °F 52% 29.78 in 2.0 mi SW 10.4 mph - 0.00 in Snow Light Snow
11:09 AM 17.1 °F 3.6 °F 3.9 °F 56% 29.77 in 1.0 mi SW 12.7 mph - 0.00 in Snow Light Snow
11:14 AM 17.1 °F 5.0 °F 7.0 °F 65% 29.78 in 0.8 mi SW 10.4 mph - 0.00 in Snow Light Snow
11:26 AM 16.0 °F 3.6 °F 10.0 °F 77% 29.78 in 0.5 mi SW 10.4 mph - 0.00 in Snow Snow
11:53 AM 16.0 °F 7.4 °F 12.0 °F 84% 29.80 in 0.5 mi South 5.8 mph - 0.02 in Fog , Snow Snow
12:04 PM 16.0 °F 7.4 °F 12.0 °F 84% 29.77 in 1.0 mi SSW 5.8 mph - 0.00 in Snow Light Snow
12:25 PM 17.1 °F 11.7 °F 12.9 °F 84% 29.75 in 2.0 mi South 3.5 mph - 0.01 in Snow Light Snow
12:31 PM 17.1 °F 8.7 °F 12.0 °F 81% 29.74 in 8.0 mi South 5.8 mph - 0.01 in Snow Light Snow
12:53 PM 18.0 °F 8.7 °F 12.9 °F 81% 29.76 in 2.5 mi SSE 6.9 mph - 0.01 in Snow Light Snow
1:08 PM 19.0 °F 13.9 °F 12.9 °F 77% 29.71 in 1.8 mi SSE 3.5 mph - 0.00 in Snow Light Snow
1:29 PM 19.0 °F 9.0 °F 14.0 °F 81% 29.68 in 2.0 mi SE 8.1 mph - 0.00 in Snow Light Snow
1:39 PM 19.9 °F 12.1 °F 14.0 °F 78% 29.66 in 6.0 mi SE 5.8 mph - 0.00 in Snow Light Snow
1:53 PM 19.9 °F 12.1 °F 14.0 °F 78% 29.69 in 10.0 mi ESE 5.8 mph - 0.00 in   Overcast
2:53 PM 25.0 °F 17.1 °F 12.9 °F 60% 29.65 in 10.0 mi SW 6.9 mph - N/A   Overcast
3:53 PM 28.9 °F 22.8 °F 15.1 °F 56% 29.67 in 10.0 mi SSW 5.8 mph - N/A   Overcast
4:53 PM 35.1 °F 25.2 °F 17.1 °F 48% 29.67 in 10.0 mi SSW 16.1 mph - N/A   Overcast
5:53 PM 37.0 °F 31.0 °F 19.9 °F 50% 29.66 in 10.0 mi SW 8.1 mph - N/A   Overcast
6:53 PM 37.9 °F - 18.0 °F 45% 29.67 in 10.0 mi Calm Calm - N/A   Overcast
7:53 PM 37.0 °F - 18.0 °F 46% 29.68 in 10.0 mi Calm Calm - N/A   Overcast
8:53 PM 35.1 °F - 21.0 °F 57% 29.68 in 10.0 mi Calm Calm - N/A   Overcast
9:53 PM 33.1 °F - 21.9 °F 64% 29.66 in 10.0 mi Calm Calm - N/A   Overcast
10:53 PM 36.0 °F 33.3 °F 21.9 °F 57% 29.64 in 10.0 mi South 3.5 mph - N/A   Overcast
11:53 PM 39.0 °F 34.0 °F 25.0 °F 57% 29.62 in 10.0 mi SSW 6.9 mph - N/A   Overcast